• Join FlightAware (Why Join?)
  • Login
  • US Flag 
11:25AM EST


 

Airport Tracker/Info


-or-


 

Live Flight TrackerFlight Track Log ✈ UPS1122 ✈ 08-May-2013 ✈ KPHL - KBDL

Flight Track Log - Related Links

Times and Time Zones

All times are in EDT time to prevent confusion due to time zone crossing. See the UPS1122 flight status page for this flight to view local times or setup timezone preferences in your user account.

Time Position Orientation Groundspeed Altitude Reporting Facility
EDT Latitude Longitude Course Direction KTS MPH feet Rate Location/Type
03:22AM 39.8734 -75.2319 38° Northeast 154 177 400  Level FlightAware ADS-B
03:22AM 39.8748 -75.2255 74° East 149 171 800 3,429 Climbing FlightAware ADS-B
03:22AM 39.8763 -75.2191 73° East 150 173 1,200 2,333 Climbing FlightAware ADS-B
03:23AM 39.8789 -75.2095 71° East 158 182 1,500 1,143 Climbing FlightAware ADS-B
03:23AM 39.8814 -75.2007 70° East 166 191 1,600 857 Climbing FlightAware ADS-B
03:23AM 39.8826 -75.1965 70° East 170 196 1,700 750 Climbing FlightAware ADS-B
03:23AM 39.8833 -75.1931 75° East 173 199 1,700  Level FlightAware ADS-B
03:23AM 39.8837 -75.1899 81° East 176 203 1,700 1,000 Level FlightAware ADS-B
03:23AM 39.8839 -75.1865 86° East 178 205 1,800 1,000 Climbing FlightAware ADS-B
03:23AM 39.8837 -75.1830 94° East 182 209 1,800  Level FlightAware ADS-B
03:23AM 39.8832 -75.1793 100° East 187 215 1,800 1,714 Level FlightAware ADS-B
03:23AM 39.8807 -75.1678 106° East 195 224 2,200 3,000 Climbing FlightAware ADS-B
03:23AM 39.8793 -75.1605 104° East 197 227 2,600 3,429 Climbing FlightAware ADS-B
03:24AM 39.8763 -75.1434 103° East 198 228 3,400 3,273 Climbing FlightAware ADS-B
03:24AM 39.8747 -75.1350 104° East 199 229 3,800 3,000 Climbing FlightAware ADS-B
03:24AM 39.8719 -75.1216 105° East 205 236 4,300 1,929 Climbing FlightAware ADS-B
03:24AM 39.8676 -75.1003 105° East 227 261 4,700 1,818 Climbing FlightAware ADS-B
03:25AM 39.8632 -75.0782 105° East 244 281 5,300 2,727 Climbing FlightAware ADS-B
03:25AM 39.8585 -75.0539 104° East 249 287 6,200 3,188 Climbing FlightAware ADS-B
03:25AM 39.8543 -75.0302 103° East 254 292 7,000 3,097 Climbing FlightAware ADS-B
03:25AM 39.8502 -75.0073 103° East 259 298 7,800 3,097 Climbing FlightAware ADS-B
03:26AM 39.8459 -74.9843 104° East 263 303 8,600 3,200 Climbing FlightAware ADS-B
03:26AM 39.8414 -74.9603 104° East 268 308 9,400 2,591 Climbing FlightAware ADS-B
03:26AM 39.8327 -74.9148 104° East 287 330 10,500 1,831 Climbing FlightAware ADS-B
03:27AM 39.8225 -74.8603 104° East 322 371 11,200 2,000 Climbing FlightAware ADS-B
03:27AM 39.8117 -74.8023 104° East 334 384 12,500 2,750 Climbing FlightAware ADS-B
03:28AM 39.8054 -74.7665 103° East 337 388 13,400 3,120 Climbing FlightAware ADS-B
03:28AM 39.8045 -74.7527 95° East 342 394 13,800 3,000 Climbing FlightAware ADS-B
03:28AM 39.8047 -74.7461 88° East 343 395 13,900 3,000 Climbing FlightAware ADS-B
03:28AM 39.8080 -74.7247 79° East 353 406 14,500 3,200 Climbing FlightAware ADS-B
03:28AM 39.8104 -74.7167 69° East 357 411 14,700 3,000 Climbing FlightAware ADS-B
03:28AM 39.8135 -74.7090 62° Northeast 360 414 14,900 3,000 Climbing FlightAware ADS-B
03:28AM 39.8213 -74.6946 55° Northeast 368 423 15,300 3,143 Climbing FlightAware ADS-B
03:28AM 39.8387 -74.6738 43° Northeast 378 435 16,000 2,870 Climbing FlightAware ADS-B
03:29AM 39.8525 -74.6607 36° Northeast 383 441 16,400 2,700 Climbing FlightAware ADS-B
03:29AM 39.8986 -74.6223 33° Northeast 389 448 17,800 2,500 Climbing FlightAware ADS-B
03:30AM 39.9445 -74.5830 33° Northeast 399 459 18,900 2,000 Climbing FlightAware ADS-B
03:30AM 40.0009 -74.5329 34° Northeast 413 475 20,000 2,091 Climbing FlightAware ADS-B
03:31AM 40.0490 -74.4899 34° Northeast 421 484 21,200 2,361 Climbing FlightAware ADS-B
03:31AM 40.0979 -74.4459 35° Northeast 426 490 22,400 1,770 Climbing FlightAware ADS-B
03:32AM 40.1475 -74.4011 35° Northeast 422 486 23,000 590 Climbing FlightAware ADS-B
03:32AM 40.1965 -74.3569 35° Northeast 411 473 23,000  Level FlightAware ADS-B
03:33AM 40.2438 -74.3140 35° Northeast 412 474 23,000  Level FlightAware ADS-B
03:33AM 40.2915 -74.2706 35° Northeast 416 479 23,000  Level FlightAware ADS-B
03:34AM 40.3390 -74.2275 35° Northeast 414 476 23,000  Level FlightAware ADS-B
03:34AM 40.3866 -74.1843 35° Northeast 416 479 23,000  Level FlightAware ADS-B
03:35AM 40.4342 -74.1410 35° Northeast 417 480 23,000  Level FlightAware ADS-B
03:35AM 40.4828 -74.0969 35° Northeast 416 479 23,000  Level FlightAware ADS-B
03:36AM 40.5304 -74.0537 35° Northeast 416 479 23,000  Level FlightAware ADS-B
03:36AM 40.5780 -74.0103 35° Northeast 417 480 23,000  Level FlightAware ADS-B
03:37AM 40.6258 -73.9671 34° Northeast 417 480 23,000  Level FlightAware ADS-B
03:37AM 40.6743 -73.9232 34° Northeast 419 482 23,000  Level FlightAware ADS-B
03:38AM 40.7222 -73.8797 35° Northeast 419 482 23,000  Level FlightAware ADS-B
03:38AM 40.7710 -73.8352 35° Northeast 422 486 23,000  Level FlightAware ADS-B
03:39AM 40.8189 -73.7913 35° Northeast 417 480 23,000  Level FlightAware ADS-B
03:39AM 40.8669 -73.7469 35° Northeast 422 486 23,000 -787 Level FlightAware ADS-B
03:40AM 40.9169 -73.7007 35° Northeast 427 491 22,200 -2,516 Descending FlightAware ADS-B
03:40AM 40.9676 -73.6536 35° Northeast 438 504 20,400 -2,951 Descending FlightAware ADS-B
03:41AM 41.0174 -73.6074 35° Northeast 430 495 19,200 -2,300 Descending FlightAware ADS-B
03:41AM 41.0658 -73.5623 35° Northeast 421 484 18,100 -2,200 Descending FlightAware ADS-B
03:42AM 41.1133 -73.5180 35° Northeast 411 473 17,000 -2,164 Descending FlightAware ADS-B
03:42AM 41.1612 -73.4731 35° Northeast 403 464 15,900 -1,645 Descending FlightAware ADS-B
03:43AM 41.2071 -73.4301 35° Northeast 383 441 15,300 -1,705 Descending FlightAware ADS-B
03:44AM 41.2877 -73.3542 35° Northeast 373 429 13,400 -1,721 Descending FlightAware ADS-B
03:45AM 41.3784 -73.2689 35° Northeast 375 432 11,800 -655 Descending FlightAware ADS-B
03:46AM 41.4360 -73.2150 35° Northeast 362 417 12,100 173 Climbing FlightAware
03:47AM 41.4950 -73.1610 34° Northeast 362 417 12,100 -1,350 Level FlightAware
03:47AM 41.5375 -73.1194 34° Northeast 303 349 10,300 -2,400 Descending Boston Center
03:48AM 41.6025 -73.0592 35° Northeast 290 334 8,500 -2,182 Descending Boston Center
03:49AM 41.6653 -72.9986 36° Northeast 281 323 5,900 -2,182 Descending Boston Center
03:50AM 41.7344 -72.9353 34° Northeast 279 321 4,100 -1,289 Descending Boston Center
03:51AM 41.7931 -72.8800 35° Northeast 264 304 3,300 -787 Descending Boston Center
03:51AM 41.7931 -72.8800 35° Northeast 269 310 3,300 -500 Level Boston Center
03:52AM 41.8369 -72.8247 43° Northeast 244 281 2,800 -700 Descending Boston Center
03:53AM 41.8747 -72.7747 45° Northeast 211 243 1,900 -850 Descending Boston Center
03:54AM 41.9019 -72.7414 42° Northeast 164 189 1,100 -700 Descending Boston Center
03:55AM 41.9269 -72.7081 45° Northeast 136 157 500 -300 Descending Boston Center
03:56AM 41.9519 -72.6744 45° Northeast 136 157 500  Level Boston Center
04:01AM 41.9333 -72.6833 217° Southwest  Level FlightAware Approximate
04:08AM 41.9392 -72.6834 217° Southwest  Level Estimated
04:09AM 41.9333 -72.6833 217° Southwest  Level FlightAware Approximate
04:10AM 41.9392 -72.6834 217° Southwest  Level Estimated